Terminal Aerodrome Forecast
Issued by NWS Sterling, VA

Home | Current Version | Previous Version | Text Only | Print | Product List | Glossary On
Versions: 1 2 3 4 5 6 7 8 9 10 11 12 13 14 15 16 17 18 19 20 21 22 23 24 25 26 27 28 29 30 31 32 33 34 35 36 37 38 39 40 41 42 43 44 45 46 47 48 49 50
000
FTUS41 KLWX 161454 AAA
TAFIAD
TAF AMD
KIAD 161454Z 1615/1718 21010KT P6SM SCT050 BKN110
     FM161800 23010KT P6SM VCTS SCT045CB OVC080
     FM162100 23009KT 6SM TSRA SCT030CB OVC045
     FM170000 23006KT P6SM VCTS SCT045CB OVC060
     FM170200 23005KT P6SM OVC045
     FM171000 VRB03KT 6SM BR BKN050
     FM171200 VRB03KT P6SM BKN050=

USA.gov is the U.S. government's official web portal to all federal, state and local government web resources and services.